Date String (YYYY-MM-DD hh:mm:ss) UTC,Instrument flags,Ambient pressure (hPa),Sample flow (lpm),Bypass flow (lpm),Sample temperature (°C),Ambient temperature (°C),ASC tube jacket temperature (°C),LED temperature (°C),Box temperature (°C),Sample RH (%),Span deviation,Mass concentration (μg/m³),Mass concentration (μg/m³),Mass concentration (μg/m³)
DateTimeUTC,F1_M11,P_M11,Q1_M11,Q2_M11,T1_M11,T2_M11,T3_M11,T4_M11,T5_M11,U1_M11,ZSPAN_M11,X0_M11,X2_M11,X1_M11
2022-08-10 16:00:00,,0834.7,5.01,0.00,29.6,27.4,00.0,38.4,31.3,31.9,0000.0,0012.84,0006.50,0005.43
2022-08-10 16:01:00,,0834.6,4.99,0.00,29.6,27.3,00.0,38.3,31.3,31.4,0000.0,0012.80,0006.56,0005.42
2022-08-10 16:02:00,,0834.7,5.01,0.00,29.5,27.4,00.0,38.3,31.3,31.8,0000.0,0013.04,0006.56,0005.41
2022-08-10 16:03:00,,0834.6,4.99,0.00,29.5,27.6,00.0,38.3,31.3,31.9,0000.0,0013.20,0006.53,0005.39
2022-08-10 16:04:00,,0834.6,5.01,0.00,29.5,27.7,00.0,38.3,31.3,32.1,0000.0,0013.65,0006.51,0005.39
2022-08-10 16:05:00,,0834.7,5.00,0.00,29.5,27.9,00.0,38.3,31.4,32.0,0000.0,0013.80,0006.51,0005.38
2022-08-10 16:06:00,,0834.6,4.99,0.00,29.5,28.1,00.0,38.3,31.4,31.6,0000.0,0014.07,0006.47,0005.37
2022-08-10 16:07:00,,0834.7,4.99,0.00,29.6,28.2,00.0,38.3,31.5,32.0,0000.0,0013.85,0006.43,0005.35
2022-08-10 16:08:00,,0834.7,5.00,0.00,29.6,28.3,00.0,38.4,31.5,31.5,0000.0,0013.60,0006.44,0005.34
2022-08-10 16:09:00,,0834.7,5.01,0.00,29.6,27.9,00.0,38.3,31.4,31.7,0000.0,0012.86,0006.43,0005.32
2022-08-10 16:10:00,,0834.7,5.00,0.00,29.6,27.4,00.0,38.3,31.3,31.9,0000.0,0013.01,0006.44,0005.32
2022-08-10 16:11:00,,0834.7,4.99,0.00,29.5,27.3,00.0,38.3,31.3,32.0,0000.0,0014.04,0006.49,0005.32
2022-08-10 16:12:00,,0834.7,5.00,0.00,29.5,27.3,00.0,38.3,31.2,31.8,0000.0,0014.54,0006.46,0005.32
2022-08-10 16:13:00,,0834.7,5.02,0.00,29.4,27.5,00.0,38.2,31.2,31.9,0000.0,0015.66,0006.42,0005.32
2022-08-10 16:14:00,,0834.7,4.99,0.00,29.4,27.6,00.0,38.2,31.3,31.7,0000.0,0015.76,0006.48,0005.33
2022-08-10 16:15:00,,0834.7,5.00,0.00,29.4,27.8,00.0,38.2,31.3,31.6,0000.0,0015.73,0006.50,0005.33
2022-08-10 16:16:00,,0834.7,4.99,0.00,29.5,28.0,00.0,38.3,31.4,31.5,0000.0,0015.31,0006.50,0005.34
2022-08-10 16:17:00,,0834.7,5.00,0.00,29.5,28.1,00.0,38.3,31.4,31.5,0000.0,0015.60,0006.50,0005.34
2022-08-10 16:18:00,,0834.7,5.00,0.00,29.5,28.3,00.0,38.3,31.5,31.4,0000.0,0016.32,0006.50,0005.35
2022-08-10 16:19:00,,0834.7,5.00,0.00,29.6,28.2,00.0,38.3,31.5,32.0,0000.0,0016.66,0006.52,0005.35
2022-08-10 16:20:00,,0834.7,5.01,0.00,29.5,27.7,00.0,38.2,31.3,32.1,0000.0,0016.99,0006.55,0005.37
2022-08-10 16:21:00,,0834.7,4.99,0.00,29.5,27.4,00.0,38.2,31.2,32.2,0000.0,0016.86,0006.56,0005.38
2022-08-10 16:22:00,,0834.7,5.00,0.00,29.4,27.3,00.0,38.2,31.2,32.3,0000.0,0017.03,0006.58,0005.37
2022-08-10 16:23:00,,0834.7,4.99,0.00,29.4,27.4,00.0,38.2,31.1,32.9,0000.0,0016.71,0006.58,0005.37
2022-08-10 16:24:00,,0834.7,5.01,0.00,29.4,27.6,00.0,38.2,31.2,32.5,0000.0,0015.63,0006.61,0005.38
2022-08-10 16:25:00,,0834.7,4.99,0.00,29.4,27.7,00.0,38.2,31.3,32.6,0000.0,0015.50,0006.59,0005.37
2022-08-10 16:26:00,,0834.7,5.00,0.00,29.4,27.9,00.0,38.2,31.3,32.1,0000.0,0015.93,0006.60,0005.37
2022-08-10 16:27:00,,0834.7,5.00,0.00,29.4,28.1,00.0,38.2,31.4,32.0,0000.0,0016.22,0006.64,0005.37
2022-08-10 16:28:00,,0834.7,5.00,0.00,29.5,28.2,00.0,38.2,31.4,32.2,0000.0,0016.01,0006.63,0005.35
2022-08-10 16:29:00,,0834.7,4.99,0.00,29.5,27.9,00.0,38.2,31.3,31.5,0000.0,0015.76,0006.62,0005.35
2022-08-10 16:30:00,,0834.7,5.01,0.00,29.4,27.4,00.0,38.2,31.2,31.8,0000.0,0016.25,0006.59,0005.33
2022-08-10 16:31:00,,0834.7,5.01,0.00,29.4,27.2,00.0,38.2,31.2,31.8,0000.0,0015.80,0006.51,0005.30
2022-08-10 16:32:00,,0834.6,4.99,0.00,29.4,27.3,00.0,38.1,31.1,32.0,0000.0,0015.50,0006.52,0005.30
2022-08-10 16:33:00,,0834.7,5.01,0.00,29.3,27.4,00.0,38.1,31.1,32.1,0000.0,0014.65,0006.57,0005.32
2022-08-10 16:34:00,,0834.7,4.99,0.00,29.3,27.6,00.0,38.1,31.2,32.7,0000.0,0015.39,0006.61,0005.33
2022-08-10 16:35:00,,0834.7,5.00,0.00,29.3,27.8,00.0,38.1,31.3,32.6,0000.0,0015.74,0006.61,0005.34
2022-08-10 16:36:00,,0834.7,5.00,0.00,29.4,27.9,00.0,38.1,31.3,32.8,0000.0,0015.62,0006.60,0005.35
2022-08-10 16:37:00,,0834.7,5.01,0.00,29.4,28.1,00.0,38.2,31.4,33.1,0000.0,0015.14,0006.56,0005.35
2022-08-10 16:38:00,,0834.7,5.00,0.00,29.4,28.1,00.0,38.2,31.4,32.5,0000.0,0015.54,0006.52,0005.36
2022-08-10 16:39:00,,0834.7,4.99,0.00,29.4,27.7,00.0,38.1,31.2,32.6,0000.0,0015.00,0006.51,0005.36
2022-08-10 16:40:00,,0834.7,5.01,0.00,29.4,27.3,00.0,38.1,31.2,32.3,0000.0,0015.17,0006.55,0005.38
2022-08-10 16:41:00,,0834.7,4.99,0.00,29.3,27.2,00.0,38.1,31.1,32.2,0000.0,0014.11,0006.54,0005.40
2022-08-10 16:42:00,,0834.7,5.01,0.00,29.3,27.3,00.0,38.1,31.1,32.6,0000.0,0014.14,0006.59,0005.43
2022-08-10 16:43:00,,0834.7,4.99,0.00,29.3,27.5,00.0,38.1,31.1,32.3,0000.0,0014.04,0006.58,0005.43
2022-08-10 16:44:00,,0834.6,5.00,0.00,29.3,27.6,00.0,38.1,31.2,32.1,0000.0,0013.99,0006.52,0005.43
2022-08-10 16:45:00,,0834.7,5.00,0.00,29.3,27.8,00.0,38.1,31.2,32.0,0000.0,0013.25,0006.46,0005.42
2022-08-10 16:46:00,,0834.7,4.99,0.00,29.3,28.0,00.0,38.1,31.3,32.4,0000.0,0012.42,0006.40,0005.41
2022-08-10 16:47:00,,0834.7,5.01,0.00,29.4,28.1,00.0,38.1,31.4,32.2,0000.0,0012.31,0006.40,0005.41
2022-08-10 16:48:00,,0834.7,5.00,0.00,29.4,28.0,00.0,38.1,31.3,31.9,0000.0,0012.11,0006.43,0005.40
2022-08-10 16:49:00,,0834.7,5.00,0.00,29.4,27.5,00.0,38.1,31.2,32.4,0000.0,0011.95,0006.45,0005.40
2022-08-10 16:50:00,,0834.7,5.00,0.00,29.3,27.2,00.0,38.1,31.1,32.8,0000.0,0011.96,0006.48,0005.41
2022-08-10 16:51:00,,0834.7,5.01,0.00,29.3,27.2,00.0,38.1,31.0,32.7,0000.0,0011.63,0006.47,0005.42
2022-08-10 16:52:00,,0834.7,4.99,0.00,29.2,27.3,00.0,38.0,31.0,33.1,0000.0,0011.86,0006.55,0005.43
2022-08-10 16:53:00,,0834.7,5.01,0.00,29.2,27.5,00.0,38.0,31.1,33.0,0000.0,0012.73,0006.56,0005.42
2022-08-10 16:54:00,,0834.7,4.99,0.00,29.3,27.7,00.0,38.0,31.1,32.6,0000.0,0013.05,0006.57,0005.43
2022-08-10 16:55:00,,0834.7,5.00,0.00,29.3,27.8,00.0,38.1,31.2,33.3,0000.0,0013.08,0006.61,0005.45
2022-08-10 16:56:00,,0834.7,5.00,0.00,29.3,28.0,00.0,38.1,31.3,33.2,0000.0,0013.44,0006.66,0005.46
2022-08-10 16:57:00,,0834.7,5.00,0.00,29.4,28.1,00.0,38.1,31.3,32.4,0000.0,0013.72,0006.71,0005.47
2022-08-10 16:58:00,,0834.7,4.99,0.00,29.4,27.7,00.0,38.1,31.2,32.7,0000.0,0014.60,0006.74,0005.50
2022-08-10 16:59:00,,0834.7,5.00,0.00,29.3,27.3,00.0,38.0,31.1,32.9,0000.0,0015.42,0006.77,0005.52
